| time (UTC) | temp F | wind direction | speed MPH | gust MPH | rain 1hr in | rain 24hr in | rain mn in | humidity % | barometer mb |
| 20260906023943 | 72 | 11 | 0.0 | 0.0 | 0.00 | 0.15 | 0.15 | 100 | 1012.8 |
| 20260906023441 | 72 | 11 | 0.0 | 0.0 | 0.00 | 0.15 | 0.15 | 99 | 1012.5 |
| 20260906022438 | 72 | 11 | 0.0 | 0.0 | 0.00 | 0.15 | 0.15 | 99 | 1012.4 |
| 20260906021938 | 72 | 11 | 0.0 | 0.0 | 0.00 | 0.15 | 0.15 | 99 | 1012.2 |
| 20260906021436 | 73 | 11 | 0.0 | 0.0 | 0.00 | 0.15 | 0.15 | 100 | 1012.1 |
| 20260906020937 | 73 | 11 | 0.0 | 0.0 | 0.00 | 0.15 | 0.15 | 99 | 1012.2 |
| 20260906020437 | 73 | 11 | 0.0 | 0.0 | 0.00 | 0.15 | 0.15 | 99 | 1012.2 |
| 20260906015936 | 73 | 11 | 0.0 | 0.0 | 0.00 | 0.15 | 0.15 | 99 | 1012.3 |
| 20260906015438 | 73 | 11 | 0.0 | 0.0 | 0.00 | 0.15 | 0.15 | 99 | 1012.3 |
| 20260906014936 | 73 | 11 | 0.0 | 0.0 | 0.00 | 0.15 | 0.15 | 99 | 1012.2 |
| 20260906014438 | 73 | 11 | 0.0 | 0.0 | 0.00 | 0.15 | 0.15 | 99 | 1012.3 |
| 20260906013937 | 74 | 11 | 0.0 | 0.0 | 0.00 | 0.15 | 0.15 | 99 | 1012.3 |
| 20260906013438 | 74 | 11 | 0.0 | 0.0 | 0.00 | 0.15 | 0.15 | 99 | 1012.1 |
| 20260906012938 | 74 | 11 | 0.0 | 0.0 | 0.00 | 0.15 | 0.15 | 98 | 1012.1 |
| 20260906012709 | 74 | 11 | 0.0 | 0.0 | 0.00 | 0.15 | 0.15 | 99 | 1012.1 |
| 20260906011936 | 74 | 11 | 0.0 | 0.0 | 0.00 | 0.15 | 0.15 | 99 | 1011.9 |
| 20260906011437 | 74 | 11 | 0.0 | 0.0 | 0.00 | 0.15 | 0.15 | 99 | 1011.8 |
| 20260906010936 | 74 | 11 | 0.0 | 0.0 | 0.00 | 0.15 | 0.15 | 98 | 1011.8 |
| 20260906010436 | 74 | 11 | 0.0 | 0.0 | 0.00 | 0.15 | 0.15 | 98 | 1011.6 |
| 20260906005938 | 74 | 11 | 0.0 | 0.0 | 0.00 | 0.15 | 0.15 | 98 | 1011.6 |
| 20260906005430 | 74 | 11 | 0.0 | 0.0 | 0.00 | 0.15 | 0.15 | 98 | 1011.7 |
| 20260906004925 | 74 | 11 | 0.0 | 0.0 | 0.00 | 0.15 | 0.15 | 98 | 1011.6 |
| 20260906004419 | 75 | 11 | 0.0 | 0.0 | 0.00 | 0.15 | 0.15 | 97 | 1011.6 |
| 20260906003912 | 75 | 11 | 0.0 | 0.0 | 0.00 | 0.15 | 0.15 | 97 | 1011.7 |
| 20260906003407 | 75 | 11 | 0.0 | 0.0 | 0.00 | 0.15 | 0.15 | 97 | 1011.8 |
| 20260906002901 | 76 | 11 | 0.0 | 0.0 | 0.00 | 0.15 | 0.15 | 97 | 1011.8 |
| 20260906002355 | 76 | 11 | 0.0 | 0.0 | 0.00 | 0.15 | 0.15 | 96 | 1011.6 |
| 20260906001849 | 76 | 11 | 0.0 | 0.0 | 0.00 | 0.15 | 0.15 | 96 | 1011.6 |
| 20260906001343 | 76 | 11 | 0.0 | 0.0 | 0.00 | 0.15 | 0.15 | 96 | 1011.5 |
| 20260906000837 | 76 | 11 | 0.0 | 0.0 | 0.00 | 0.15 | 0.15 | 96 | 1011.5 |
| 20260906000333 | 77 | 11 | 0.0 | 0.0 | 0.00 | 0.15 | 0.15 | 95 | 1011.4 |
| 20260905235825 | 77 | 11 | 0.0 | 0.0 | 0.00 | 0.15 | 0.15 | 95 | 1011.4 |
| 20260905235551 | 77 | 11 | 0.0 | 0.0 | 0.00 | 0.15 | 0.15 | 94 | 1011.2 |
| 20260905234813 | 78 | 11 | 0.0 | 0.0 | 0.00 | 0.15 | 0.15 | 93 | 1011.1 |
| 20260905234307 | 78 | 11 | 0.0 | 0.0 | 0.00 | 0.15 | 0.15 | 94 | 1010.9 |
| 20260905233801 | 78 | 11 | 0.0 | 0.0 | 0.00 | 0.15 | 0.15 | 92 | 1011.0 |
| 20260905233254 | 79 | 11 | 0.0 | 0.0 | 0.00 | 0.15 | 0.15 | 93 | 1011.0 |
| 20260905232749 | 79 | 13 | 0.0 | 0.0 | 0.00 | 0.15 | 0.15 | 92 | 1011.0 |
| 20260905232242 | 79 | 13 | 0.0 | 0.0 | 0.00 | 0.15 | 0.15 | 91 | 1011.0 |
| 20260905231737 | 80 | 13 | 0.0 | 0.0 | 0.00 | 0.15 | 0.15 | 91 | 1011.0 |
| 20260905231231 | 80 | 13 | 0.0 | 0.0 | 0.00 | 0.15 | 0.15 | 91 | 1010.9 |
| 20260905230724 | 80 | 296 | 0.0 | 0.0 | 0.00 | 0.15 | 0.15 | 91 | 1010.7 |
| 20260905230218 | 81 | 296 | 0.0 | 0.0 | 0.00 | 0.15 | 0.15 | 90 | 1010.7 |
| 20260905225712 | 81 | 246 | 1.0 | 4.0 | 0.00 | 0.15 | 0.15 | 87 | 1010.8 |
| 20260905225207 | 81 | 246 | 1.0 | 4.0 | 0.00 | 0.15 | 0.15 | 83 | 1010.9 |
| 20260905224701 | 82 | 70 | 0.0 | 0.0 | 0.00 | 0.15 | 0.15 | 87 | 1010.9 |
| 20260905224156 | 83 | 197 | 0.0 | 0.0 | 0.00 | 0.15 | 0.15 | 86 | 1010.9 |
| 20260905223654 | 83 | 197 | 0.0 | 0.0 | 0.00 | 0.15 | 0.15 | 85 | 1010.9 |
| 20260905223143 | 83 | 197 | 0.0 | 0.0 | 0.00 | 0.15 | 0.15 | 84 | 1010.9 |
| 20260905222637 | 83 | 197 | 0.0 | 0.0 | 0.00 | 0.15 | 0.15 | 85 | 1010.9 |
| 20260905222130 | 82 | 197 | 0.0 | 0.0 | 0.00 | 0.15 | 0.15 | 85 | 1010.9 |
| 20260905221625 | 82 | 197 | 0.0 | 0.0 | 0.00 | 0.15 | 0.15 | 89 | 1010.9 |
| 20260905221349 | 81 | 197 | 0.0 | 0.0 | 0.00 | 0.15 | 0.15 | 89 | 1011.0 |
| 20260905220613 | 81 | 197 | 0.0 | 0.0 | 0.00 | 0.15 | 0.15 | 90 | 1011.0 |
| 20260905220107 | 81 | 197 | 0.0 | 0.0 | 0.00 | 0.15 | 0.15 | 90 | 1011.2 |
| 20260905215601 | 81 | 197 | 0.0 | 0.0 | 0.00 | 0.15 | 0.15 | 91 | 1011.1 |
| 20260905215055 | 81 | 171 | 0.0 | 0.0 | 0.00 | 0.15 | 0.15 | 91 | 1011.1 |
| 20260905214549 | 80 | 182 | 0.0 | 0.0 | 0.00 | 0.15 | 0.15 | 90 | 1011.1 |
| 20260905214043 | 80 | 191 | 0.0 | 0.0 | 0.00 | 0.15 | 0.15 | 89 | 1011.3 |
| 20260905213537 | 80 | 191 | 0.0 | 0.0 | 0.00 | 0.15 | 0.15 | 90 | 1011.4 |
| 20260905213303 | 80 | 191 | 0.0 | 0.0 | 0.00 | 0.15 | 0.15 | 90 | 1011.4 |
| 20260905212525 | 80 | 191 | 0.0 | 0.0 | 0.00 | 0.15 | 0.15 | 90 | 1011.6 |
| 20260905212019 | 80 | 189 | 0.0 | 1.0 | 0.00 | 0.15 | 0.15 | 90 | 1011.7 |
| 20260905211513 | 80 | 255 | 0.0 | 1.0 | 0.00 | 0.15 | 0.15 | 91 | 1011.8 |
| 20260905211007 | 80 | 289 | 0.0 | 0.0 | 0.00 | 0.15 | 0.15 | 91 | 1011.7 |
| 20260905210501 | 80 | 292 | 0.0 | 0.0 | 0.00 | 0.15 | 0.15 | 90 | 1011.8 |
| 20260905205955 | 80 | 292 | 0.0 | 0.0 | 0.00 | 0.15 | 0.15 | 92 | 1011.7 |
| 20260905205719 | 80 | 121 | 0.0 | 0.0 | 0.00 | 0.15 | 0.15 | 91 | 1011.8 |
| 20260905205215 | 80 | 121 | 0.0 | 0.0 | 0.00 | 0.15 | 0.15 | 89 | 1011.9 |
| 20260905204437 | 80 | 113 | 0.0 | 0.0 | 0.00 | 0.15 | 0.15 | 89 | 1011.9 |
| 20260905203930 | 79 | 44 | 0.0 | 0.0 | 0.00 | 0.15 | 0.15 | 88 | 1012.2 |
| 20260905203425 | 79 | 44 | 0.0 | 0.0 | 0.00 | 0.15 | 0.15 | 90 | 1012.2 |
| 20260905202919 | 79 | 44 | 0.0 | 0.0 | 0.00 | 0.15 | 0.15 | 89 | 1012.3 |
| 20260905202413 | 79 | 44 | 0.0 | 0.0 | 0.00 | 0.15 | 0.15 | 92 | 1012.4 |
| 20260905201912 | 78 | 44 | 0.0 | 0.0 | 0.00 | 0.15 | 0.15 | 90 | 1012.4 |
| 20260905201413 | 78 | 44 | 0.0 | 0.0 | 0.00 | 0.15 | 0.15 | 92 | 1012.4 |
| 20260905200914 | 77 | 44 | 0.0 | 3.0 | 0.00 | 0.15 | 0.15 | 92 | 1012.6 |
| 20260905200411 | 77 | 44 | 1.0 | 5.0 | 0.00 | 0.15 | 0.15 | 94 | 1012.5 |
| 20260905195910 | 76 | 346 | 1.0 | 6.0 | 0.00 | 0.15 | 0.15 | 95 | 1012.4 |
| 20260905195409 | 76 | 294 | 1.0 | 6.0 | 0.01 | 0.15 | 0.15 | 94 | 1012.2 |
| 20260905194907 | 75 | 9 | 2.0 | 8.0 | 0.04 | 0.15 | 0.15 | 95 | 1012.4 |
| 20260905194407 | 75 | 331 | 1.0 | 8.0 | 0.07 | 0.15 | 0.15 | 97 | 1012.5 |
| 20260905193905 | 74 | 48 | 1.0 | 6.0 | 0.11 | 0.15 | 0.15 | 96 | 1012.2 |
| 20260905193639 | 73 | 293 | 1.0 | 7.0 | 0.12 | 0.15 | 0.15 | 97 | 1012.2 |
| 20260905192907 | 73 | 252 | 0.0 | 7.0 | 0.15 | 0.15 | 0.15 | 97 | 1012.3 |
| 20260905192407 | 73 | 231 | 0.0 | 3.0 | 0.15 | 0.15 | 0.15 | 97 | 1012.4 |
| 20260905191906 | 72 | 263 | 0.0 | 2.0 | 0.15 | 0.15 | 0.15 | 97 | 1012.3 |
| 20260905191639 | 72 | 5 | 0.0 | 2.0 | 0.15 | 0.15 | 0.15 | 96 | 1012.3 |
| 20260905190904 | 72 | 69 | 0.0 | 2.0 | 0.15 | 0.15 | 0.15 | 95 | 1012.1 |
| 20260905190402 | 72 | 195 | 0.0 | 5.0 | 0.15 | 0.15 | 0.15 | 94 | 1012.4 |
| 20260905185902 | 72 | 195 | 2.0 | 12.0 | 0.15 | 0.15 | 0.15 | 93 | 1012.9 |
| 20260905185359 | 73 | 302 | 4.0 | 17.0 | 0.14 | 0.14 | 0.14 | 92 | 1013.7 |
| 20260905184400 | 75 | 336 | 9.0 | 24.0 | 0.08 | 0.08 | 0.08 | 88 | 1014.5 |
| 20260905183900 | 78 | 341 | 8.0 | 24.0 | 0.04 | 0.04 | 0.05 | 85 | 1014.4 |
| 20260905183400 | 82 | 13 | 4.0 | 20.0 | 0.03 | 0.03 | 0.03 | 81 | 1013.8 |
| 20260905182902 | 86 | 344 | 0.0 | 7.0 | 0.00 | 0.00 | 0.01 | 83 | 1013.4 |
| 20260905182403 | 87 | 295 | 0.0 | 0.0 | 0.00 | 0.00 | 0.00 | 84 | 1012.8 |
| 20260905181903 | 88 | 295 | 0.0 | 0.0 | 0.00 | 0.00 | 0.00 | 81 | 1012.2 |
| 20260905181404 | 89 | 295 | 0.0 | 0.0 | 0.00 | 0.00 | 0.00 | 77 | 1011.6 |
| 20260905180900 | 90 | 295 | 0.0 | 0.0 | 0.00 | 0.00 | 0.00 | 77 | 1011.7 |
| 20260905180402 | 91 | 295 | 0.0 | 0.0 | 0.00 | 0.00 | 0.00 | 73 | 1012.1 |
| 20260905175900 | 91 | 295 | 0.0 | 0.0 | 0.00 | 0.00 | 0.00 | 70 | 1012.4 |
| 20260905175630 | 92 | 295 | 0.0 | 1.0 | 0.00 | 0.00 | 0.00 | 70 | 1012.4 |
| 20260905174859 | 93 | 294 | 0.0 | 3.0 | 0.00 | 0.00 | 0.00 | 64 | 1012.4 |
| 20260905174400 | 93 | 287 | 0.0 | 3.0 | 0.00 | 0.00 | 0.00 | 62 | 1012.4 |
| 20260905173900 | 94 | 244 | 0.0 | 0.0 | 0.00 | 0.00 | 0.00 | 61 | 1012.5 |
| 20260905173630 | 94 | 244 | 0.0 | 0.0 | 0.00 | 0.00 | 0.00 | 59 | 1012.6 |
| 20260905172858 | 94 | 244 | 0.0 | 2.0 | 0.00 | 0.00 | 0.00 | 59 | 1012.7 |
| 20260905172623 | 93 | 244 | 0.0 | 2.0 | 0.00 | 0.00 | 0.00 | 60 | 1012.7 |
| 20260905171846 | 93 | 244 | 0.0 | 2.0 | 0.00 | 0.00 | 0.00 | 61 | 1012.9 |
| 20260905171612 | 93 | 244 | 0.0 | 2.0 | 0.00 | 0.00 | 0.00 | 61 | 1012.8 |
| 20260905170834 | 93 | 157 | 0.0 | 0.0 | 0.00 | 0.00 | 0.00 | 67 | 1012.8 |
| 20260905170328 | 93 | 156 | 0.0 | 1.0 | 0.00 | 0.00 | 0.00 | 62 | 1013.0 |
| 20260905165822 | 93 | 155 | 0.0 | 5.0 | 0.00 | 0.00 | 0.00 | 65 | 1013.0 |
| 20260905165315 | 93 | 150 | 0.0 | 5.0 | 0.00 | 0.00 | 0.00 | 67 | 1013.0 |
| 20260905164811 | 93 | 67 | 0.0 | 4.0 | 0.00 | 0.00 | 0.00 | 64 | 1013.2 |
| 20260905164304 | 92 | 165 | 0.0 | 4.0 | 0.00 | 0.00 | 0.00 | 67 | 1013.2 |
| 20260905163758 | 92 | 218 | 0.0 | 1.0 | 0.00 | 0.00 | 0.00 | 71 | 1013.3 |
| 20260905163252 | 92 | 218 | 0.0 | 1.0 | 0.00 | 0.00 | 0.00 | 66 | 1013.4 |
| 20260905162746 | 92 | 218 | 0.0 | 1.0 | 0.00 | 0.00 | 0.00 | 67 | 1013.4 |
| 20260905162239 | 92 | 246 | 0.0 | 1.0 | 0.00 | 0.00 | 0.00 | 67 | 1013.5 |
| 20260905161734 | 92 | 246 | 0.0 | 1.0 | 0.00 | 0.00 | 0.00 | 68 | 1013.5 |
| 20260905161229 | 92 | 196 | 0.0 | 0.0 | 0.00 | 0.00 | 0.00 | 68 | 1013.6 |
| 20260905160722 | 92 | 179 | 0.0 | 1.0 | 0.00 | 0.00 | 0.00 | 69 | 1013.6 |
| 20260905160447 | 92 | 178 | 0.0 | 1.0 | 0.00 | 0.00 | 0.00 | 71 | 1013.6 |
| 20260905155710 | 91 | 198 | 0.0 | 0.0 | 0.00 | 0.00 | 0.00 | 71 | 1013.6 |
| 20260905155203 | 91 | 198 | 0.0 | 0.0 | 0.00 | 0.00 | 0.00 | 71 | 1013.6 |
| 20260905154657 | 91 | 198 | 0.0 | 0.0 | 0.00 | 0.00 | 0.00 | 71 | 1013.7 |
| 20260905154152 | 90 | 198 | 0.0 | 2.0 | 0.00 | 0.00 | 0.00 | 72 | 1013.7 |
| 20260905153645 | 90 | 198 | 0.0 | 2.0 | 0.00 | 0.00 | 0.00 | 69 | 1013.7 |
| 20260905153140 | 90 | 198 | 0.0 | 0.0 | 0.00 | 0.00 | 0.00 | 70 | 1013.6 |
| 20260905152634 | 90 | 198 | 0.0 | 1.0 | 0.00 | 0.00 | 0.00 | 71 | 1013.7 |
| 20260905152128 | 90 | 184 | 0.0 | 1.0 | 0.00 | 0.00 | 0.00 | 72 | 1013.7 |
| 20260905151852 | 90 | 184 | 0.0 | 0.0 | 0.00 | 0.00 | 0.00 | 73 | 1013.7 |
| 20260905151116 | 89 | 184 | 0.0 | 0.0 | 0.00 | 0.00 | 0.00 | 76 | 1013.7 |
| 20260905150610 | 89 | 184 | 0.0 | 0.0 | 0.00 | 0.00 | 0.00 | 76 | 1013.7 |
| 20260905150334 | 88 | 247 | 0.0 | 0.0 | 0.00 | 0.00 | 0.00 | 75 | 1013.7 |
| 20260905145828 | 88 | 247 | 0.0 | 1.0 | 0.00 | 0.00 | 0.00 | 78 | 1013.7 |
| 20260905145052 | 87 | 247 | 0.0 | 1.0 | 0.00 | 0.00 | 0.00 | 79 | 1013.7 |
| 20260905144547 | 87 | 257 | 0.0 | 0.0 | 0.00 | 0.00 | 0.00 | 80 | 1013.7 |
| 20260905144039 | 87 | 257 | 0.0 | 0.0 | 0.00 | 0.00 | 0.00 | 79 | 1013.7 |
| 20260905143533 | 87 | 257 | 0.0 | 0.0 | 0.00 | 0.00 | 0.00 | 80 | 1013.8 |
| 20260905143028 | 87 | 257 | 0.0 | 0.0 | 0.00 | 0.00 | 0.00 | 81 | 1013.8 |
| 20260905142522 | 86 | 257 | 0.0 | 0.0 | 0.00 | 0.00 | 0.00 | 84 | 1013.8 |
| 20260905142246 | 85 | 257 | 0.0 | 0.0 | 0.00 | 0.00 | 0.00 | 83 | 1013.8 |
| 20260905141741 | 85 | 257 | 0.0 | 0.0 | 0.00 | 0.00 | 0.00 | 84 | 1013.8 |
| 20260905141004 | 84 | 257 | 0.0 | 0.0 | 0.00 | 0.00 | 0.00 | 86 | 1013.8 |
| 20260905140730 | 83 | 257 | 0.0 | 0.0 | 0.00 | 0.00 | 0.00 | 88 | 1013.8 |
| 20260905140224 | 83 | 257 | 0.0 | 0.0 | 0.00 | 0.00 | 0.00 | 88 | 1013.8 |
| 20260905135445 | 82 | 257 | 0.0 | 0.0 | 0.00 | 0.00 | 0.00 | 90 | 1013.8 |
| 20260905134940 | 81 | 257 | 0.0 | 0.0 | 0.00 | 0.00 | 0.00 | 91 | 1013.8 |
| 20260905134433 | 81 | 257 | 0.0 | 0.0 | 0.00 | 0.00 | 0.00 | 92 | 1013.9 |
| 20260905133928 | 80 | 257 | 0.0 | 0.0 | 0.00 | 0.00 | 0.00 | 93 | 1013.9 |
| 20260905133422 | 79 | 257 | 0.0 | 1.0 | 0.00 | 0.00 | 0.00 | 96 | 1014.1 |
| 20260905132916 | 79 | 257 | 0.0 | 1.0 | 0.00 | 0.00 | 0.00 | 99 | 1014.1 |
| 20260905132409 | 78 | 257 | 0.0 | 0.0 | 0.00 | 0.00 | 0.00 | 99 | 1014.1 |
| 20260905131904 | 77 | 257 | 0.0 | 0.0 | 0.00 | 0.00 | 0.00 | 99 | 1014.1 |
| 20260905131358 | 77 | 257 | 0.0 | 0.0 | 0.00 | 0.00 | 0.00 | 100 | 1014.2 |
| 20260905130857 | 76 | 257 | 0.0 | 0.0 | 0.00 | 0.00 | 0.00 | 100 | 1014.2 |
| 20260905130355 | 76 | 257 | 0.0 | 0.0 | 0.00 | 0.00 | 0.00 | 100 | 1014.1 |
| 20260905125853 | 76 | 257 | 0.0 | 0.0 | 0.00 | 0.00 | 0.00 | 100 | 1014.1 |
| 20260905124849 | 75 | 257 | 0.0 | 0.0 | 0.00 | 0.00 | 0.00 | 100 | 1014.2 |
| 20260905124349 | 74 | 257 | 0.0 | 0.0 | 0.00 | 0.00 | 0.00 | 100 | 1014.3 |
| 20260905123849 | 73 | 257 | 0.0 | 0.0 | 0.00 | 0.00 | 0.00 | 100 | 1014.3 |
| 20260905123347 | 72 | 257 | 0.0 | 0.0 | 0.00 | 0.00 | 0.00 | 100 | 1014.2 |
| 20260905122845 | 72 | 257 | 0.0 | 0.0 | 0.00 | 0.00 | 0.00 | 100 | 1014.1 |
| 20260905122343 | 71 | 257 | 0.0 | 0.0 | 0.00 | 0.00 | 0.00 | 100 | 1014.1 |
| 20260905121840 | 71 | 257 | 0.0 | 0.0 | 0.00 | 0.00 | 0.00 | 100 | 1014.1 |
| 20260905121339 | 71 | 257 | 0.0 | 0.0 | 0.00 | 0.00 | 0.00 | 100 | 1014.1 |
| 20260905120837 | 70 | 257 | 0.0 | 0.0 | 0.00 | 0.00 | 0.00 | 100 | 1014.1 |
| 20260905120336 | 70 | 257 | 0.0 | 0.0 | 0.00 | 0.00 | 0.00 | 100 | 1014.1 |
| 20260905120103 | 70 | 257 | 0.0 | 0.0 | 0.00 | 0.00 | 0.00 | 100 | 1014.0 |
| 20260905115601 | 70 | 257 | 0.0 | 0.0 | 0.00 | 0.00 | 0.00 | 100 | 1013.9 |
| 20260905114830 | 70 | 257 | 0.0 | 0.0 | 0.00 | 0.00 | 0.00 | 100 | 1013.9 |
| 20260905114329 | 70 | 257 | 0.0 | 0.0 | 0.00 | 0.00 | 0.00 | 100 | 1013.7 |
| 20260905113828 | 70 | 257 | 0.0 | 0.0 | 0.00 | 0.00 | 0.00 | 100 | 1013.7 |
| 20260905113331 | 70 | 257 | 0.0 | 0.0 | 0.00 | 0.00 | 0.00 | 100 | 1013.7 |
| 20260905113100 | 70 | 257 | 0.0 | 0.0 | 0.00 | 0.00 | 0.00 | 100 | 1013.6 |
| 20260905112558 | 70 | 257 | 0.0 | 0.0 | 0.00 | 0.00 | 0.00 | 100 | 1013.6 |
| 20260905112059 | 70 | 257 | 0.0 | 0.0 | 0.00 | 0.00 | 0.00 | 100 | 1013.4 |
| 20260905111327 | 70 | 257 | 0.0 | 0.0 | 0.00 | 0.00 | 0.00 | 100 | 1013.5 |
| 20260905110826 | 70 | 257 | 0.0 | 0.0 | 0.00 | 0.00 | 0.00 | 100 | 1013.4 |
| 20260905110326 | 70 | 257 | 0.0 | 0.0 | 0.00 | 0.00 | 0.00 | 100 | 1013.3 |
| 20260905105827 | 70 | 257 | 0.0 | 0.0 | 0.00 | 0.00 | 0.00 | 100 | 1013.2 |
| 20260905104827 | 70 | 257 | 0.0 | 0.0 | 0.00 | 0.00 | 0.00 | 100 | 1013.0 |
| 20260905104553 | 70 | 257 | 0.0 | 0.0 | 0.00 | 0.00 | 0.00 | 100 | 1013.0 |
| 20260905103823 | 70 | 257 | 0.0 | 0.0 | 0.00 | 0.00 | 0.00 | 100 | 1012.9 |
| 20260905103324 | 70 | 257 | 0.0 | 0.0 | 0.00 | 0.00 | 0.00 | 100 | 1012.9 |
| 20260905102823 | 70 | 257 | 0.0 | 0.0 | 0.00 | 0.00 | 0.00 | 100 | 1012.8 |
| 20260905102324 | 70 | 257 | 0.0 | 0.0 | 0.00 | 0.00 | 0.00 | 100 | 1012.8 |
| 20260905101823 | 70 | 257 | 0.0 | 0.0 | 0.00 | 0.00 | 0.00 | 100 | 1012.8 |
| 20260905101322 | 70 | 257 | 0.0 | 0.0 | 0.00 | 0.00 | 0.00 | 100 | 1012.7 |
| 20260905100822 | 71 | 257 | 0.0 | 0.0 | 0.00 | 0.00 | 0.00 | 100 | 1012.8 |
| 20260905100324 | 71 | 257 | 0.0 | 0.0 | 0.00 | 0.00 | 0.00 | 100 | 1012.8 |
| 20260905095820 | 71 | 257 | 0.0 | 0.0 | 0.00 | 0.00 | 0.00 | 100 | 1012.8 |
| 20260905095552 | 71 | 257 | 0.0 | 0.0 | 0.00 | 0.00 | 0.00 | 100 | 1012.7 |
| 20260905094822 | 71 | 257 | 0.0 | 0.0 | 0.00 | 0.00 | 0.00 | 100 | 1012.6 |
| 20260905094318 | 71 | 257 | 0.0 | 0.0 | 0.00 | 0.00 | 0.00 | 100 | 1012.7 |
| 20260905093817 | 71 | 257 | 0.0 | 0.0 | 0.00 | 0.00 | 0.00 | 100 | 1012.7 |
| 20260905093317 | 71 | 257 | 0.0 | 0.0 | 0.00 | 0.00 | 0.00 | 100 | 1012.8 |
| 20260905092817 | 71 | 257 | 0.0 | 0.0 | 0.00 | 0.00 | 0.00 | 100 | 1012.8 |
| 20260905092317 | 71 | 257 | 0.0 | 0.0 | 0.00 | 0.00 | 0.00 | 100 | 1012.8 |
| 20260905091817 | 71 | 257 | 0.0 | 0.0 | 0.00 | 0.00 | 0.00 | 100 | 1012.8 |
| 20260905091545 | 71 | 257 | 0.0 | 0.0 | 0.00 | 0.00 | 0.00 | 100 | 1012.8 |
| 20260905090814 | 71 | 257 | 0.0 | 0.0 | 0.00 | 0.00 | 0.00 | 100 | 1012.7 |
| 20260905090314 | 71 | 257 | 0.0 | 0.0 | 0.00 | 0.00 | 0.00 | 100 | 1012.8 |
| 20260905085814 | 71 | 257 | 0.0 | 0.0 | 0.00 | 0.00 | 0.00 | 100 | 1012.9 |
| 20260905085550 | 71 | 257 | 0.0 | 0.0 | 0.00 | 0.00 | 0.00 | 100 | 1012.8 |
| 20260905084315 | 71 | 257 | 0.0 | 0.0 | 0.00 | 0.00 | 0.00 | 100 | 1013.0 |
| 20260905083814 | 71 | 257 | 0.0 | 0.0 | 0.00 | 0.00 | 0.00 | 100 | 1013.1 |
| 20260905083308 | 71 | 257 | 0.0 | 0.0 | 0.00 | 0.00 | 0.00 | 100 | 1013.1 |
| 20260905082801 | 71 | 257 | 0.0 | 0.0 | 0.00 | 0.00 | 0.00 | 100 | 1013.1 |
| 20260905082255 | 71 | 257 | 0.0 | 0.0 | 0.00 | 0.00 | 0.00 | 100 | 1013.2 |
| 20260905082019 | 72 | 257 | 0.0 | 0.0 | 0.00 | 0.00 | 0.00 | 100 | 1013.2 |
| 20260905081515 | 72 | 257 | 0.0 | 0.0 | 0.00 | 0.00 | 0.00 | 100 | 1013.3 |
| 20260905080737 | 72 | 257 | 0.0 | 0.0 | 0.00 | 0.00 | 0.00 | 100 | 1013.3 |
| 20260905080230 | 72 | 257 | 0.0 | 0.0 | 0.00 | 0.00 | 0.00 | 100 | 1013.4 |
| 20260905075724 | 72 | 257 | 0.0 | 0.0 | 0.00 | 0.00 | 0.00 | 100 | 1013.5 |
| 20260905075218 | 72 | 257 | 0.0 | 0.0 | 0.00 | 0.00 | 0.00 | 100 | 1013.5 |
| 20260905074712 | 72 | 257 | 0.0 | 0.0 | 0.00 | 0.00 | 0.00 | 100 | 1013.5 |
| 20260905074207 | 72 | 257 | 0.0 | 0.0 | 0.00 | 0.00 | 0.00 | 100 | 1013.6 |
| 20260905073701 | 72 | 257 | 0.0 | 0.0 | 0.00 | 0.00 | 0.00 | 100 | 1013.6 |
| 20260905073155 | 72 | 257 | 0.0 | 0.0 | 0.00 | 0.00 | 0.00 | 100 | 1013.6 |
| 20260905072921 | 73 | 257 | 0.0 | 0.0 | 0.00 | 0.00 | 0.00 | 100 | 1013.7 |
| 20260905072143 | 73 | 257 | 0.0 | 0.0 | 0.00 | 0.00 | 0.00 | 100 | 1013.6 |
| 20260905071908 | 73 | 257 | 0.0 | 0.0 | 0.00 | 0.00 | 0.00 | 100 | 1013.7 |
| 20260905071130 | 73 | 257 | 0.0 | 0.0 | 0.00 | 0.00 | 0.00 | 100 | 1013.6 |
| 20260905070625 | 73 | 257 | 0.0 | 0.0 | 0.00 | 0.00 | 0.00 | 100 | 1013.7 |
| 20260905070118 | 73 | 257 | 0.0 | 0.0 | 0.00 | 0.00 | 0.00 | 100 | 1013.7 |
| 20260905065844 | 73 | 257 | 0.0 | 0.0 | 0.00 | 0.00 | 0.00 | 100 | 1013.7 |
| 20260905065107 | 73 | 257 | 0.0 | 0.0 | 0.00 | 0.00 | 0.00 | 100 | 1013.8 |
| 20260905064833 | 73 | 257 | 0.0 | 0.0 | 0.00 | 0.00 | 0.00 | 100 | 1013.9 |
| 20260905064325 | 73 | 257 | 0.0 | 0.0 | 0.00 | 0.00 | 0.00 | 100 | 1013.9 |
| 20260905063549 | 73 | 257 | 0.0 | 0.0 | 0.00 | 0.00 | 0.00 | 100 | 1013.9 |
| 20260905063044 | 73 | 257 | 0.0 | 0.0 | 0.00 | 0.00 | 0.00 | 100 | 1014.0 |
| 20260905062537 | 73 | 257 | 0.0 | 0.0 | 0.00 | 0.00 | 0.00 | 100 | 1014.0 |
| 20260905062305 | 73 | 257 | 0.0 | 0.0 | 0.00 | 0.00 | 0.00 | 100 | 1014.1 |
| 20260905061524 | 73 | 257 | 0.0 | 0.0 | 0.00 | 0.00 | 0.00 | 100 | 1014.1 |
| 20260905061249 | 73 | 257 | 0.0 | 0.0 | 0.00 | 0.00 | 0.00 | 100 | 1014.1 |
| 20260905060512 | 73 | 257 | 0.0 | 0.0 | 0.00 | 0.00 | 0.00 | 100 | 1014.1 |
| 20260905060007 | 73 | 257 | 0.0 | 0.0 | 0.00 | 0.00 | 0.00 | 100 | 1014.2 |
| 20260905055504 | 73 | 257 | 0.0 | 0.0 | 0.00 | 0.00 | 0.00 | 100 | 1014.4 |
| 20260905055004 | 73 | 257 | 0.0 | 0.0 | 0.00 | 0.00 | 0.00 | 100 | 1014.4 |
| 20260905054503 | 74 | 257 | 0.0 | 0.0 | 0.00 | 0.00 | 0.00 | 99 | 1014.5 |
| 20260905054231 | 74 | 257 | 0.0 | 0.0 | 0.00 | 0.00 | 0.00 | 100 | 1014.5 |
| 20260905053458 | 74 | 257 | 0.0 | 0.0 | 0.00 | 0.00 | 0.00 | 100 | 1014.4 |
| 20260905052956 | 74 | 257 | 0.0 | 0.0 | 0.00 | 0.00 | 0.00 | 100 | 1014.3 |
| 20260905052454 | 74 | 257 | 0.0 | 0.0 | 0.00 | 0.00 | 0.00 | 100 | 1014.4 |
| 20260905051951 | 74 | 257 | 0.0 | 0.0 | 0.00 | 0.00 | 0.00 | 100 | 1014.4 |
| 20260905051453 | 74 | 257 | 0.0 | 0.0 | 0.00 | 0.00 | 0.00 | 100 | 1014.4 |
| 20260905050952 | 74 | 257 | 0.0 | 0.0 | 0.00 | 0.00 | 0.00 | 100 | 1014.3 |
| 20260905050450 | 74 | 257 | 0.0 | 0.0 | 0.00 | 0.00 | 0.00 | 99 | 1014.4 |
| 20260905045948 | 74 | 257 | 0.0 | 0.0 | 0.00 | 0.00 | 0.00 | 100 | 1014.5 |
| 20260905045448 | 74 | 257 | 0.0 | 0.0 | 0.00 | 0.00 | 0.00 | 99 | 1014.5 |
| 20260905044949 | 74 | 257 | 0.0 | 0.0 | 0.00 | 0.00 | 0.00 | 99 | 1014.4 |
| 20260905044446 | 74 | 257 | 0.0 | 0.0 | 0.00 | 0.00 | 0.00 | 100 | 1014.4 |
| 20260905043945 | 74 | 257 | 0.0 | 0.0 | 0.00 | 0.00 | 0.00 | 100 | 1014.5 |
| 20260905043442 | 74 | 257 | 0.0 | 0.0 | 0.00 | 0.00 | 0.00 | 100 | 1014.4 |
| 20260905042940 | 74 | 257 | 0.0 | 0.0 | 0.00 | 0.00 | 0.00 | 99 | 1014.4 |
| 20260905042440 | 75 | 257 | 0.0 | 0.0 | 0.00 | 0.00 | 0.00 | 99 | 1014.4 |
| 20260905041935 | 75 | 257 | 0.0 | 0.0 | 0.00 | 0.00 | 0.00 | 99 | 1014.4 |
| 20260905041433 | 75 | 257 | 0.0 | 0.0 | 0.00 | 0.00 | 0.00 | 99 | 1014.4 |
| 20260905040932 | 76 | 257 | 0.0 | 0.0 | 0.00 | 0.00 | 0.00 | 100 | 1014.3 |
| 20260905035928 | 76 | 257 | 0.0 | 0.0 | 0.00 | 0.00 | 0.00 | 99 | 1014.2 |
| 20260905035426 | 76 | 257 | 0.0 | 0.0 | 0.00 | 0.00 | 0.00 | 99 | 1014.2 |
| 20260905034926 | 76 | 257 | 0.0 | 0.0 | 0.00 | 0.00 | 0.00 | 99 | 1014.3 |
| 20260905034425 | 76 | 257 | 0.0 | 0.0 | 0.00 | 0.00 | 0.00 | 99 | 1014.3 |
| 20260905033424 | 76 | 257 | 0.0 | 0.0 | 0.00 | 0.00 | 0.00 | 99 | 1014.2 |
| 20260905033155 | 76 | 257 | 0.0 | 0.0 | 0.00 | 0.00 | 0.00 | 99 | 1014.2 |
| 20260905032425 | 76 | 257 | 0.0 | 0.0 | 0.00 | 0.00 | 0.00 | 99 | 1014.2 |
| 20260905031925 | 76 | 257 | 0.0 | 0.0 | 0.00 | 0.00 | 0.00 | 99 | 1014.3 |
| 20260905031425 | 76 | 257 | 0.0 | 0.0 | 0.00 | 0.00 | 0.00 | 99 | 1014.3 |
| 20260905030925 | 77 | 257 | 0.0 | 0.0 | 0.00 | 0.00 | 0.00 | 99 | 1014.3 |
| 20260905030427 | 77 | 257 | 0.0 | 0.0 | 0.00 | 0.00 | 0.00 | 99 | 1014.4 |
| 20260905025928 | 76 | 257 | 0.0 | 0.0 | 0.00 | 0.00 | 0.00 | 99 | 1014.5 |
| 20260905025659 | 77 | 257 | 0.0 | 0.0 | 0.00 | 0.00 | 0.00 | 99 | 1014.5 |
| 20260905024929 | 77 | 257 | 0.0 | 0.0 | 0.00 | 0.00 | 0.00 | 99 | 1014.6 |
| 20260905024427 | 77 | 257 | 0.0 | 0.0 | 0.00 | 0.00 | 0.00 | 99 | 1014.7 |